GFSCGP_con_3kmhel_159.txt.gz
Helicity
95 71 9 -28 -10 12 50 29 3 16 82 111 105 16 93 119 112 173 152 158 185 90 38 2 -20 10 -46 -93 -88 -51 -14 -7 -17 -23 18 33 16 29 36 31 29 40 18 10
70 -33 4 -8 8 76 25 39 22 -12 70 65 53 70 48 108 115 74 129 78 190 63 68 8 -9 5 22 -42 -82 -76 -41 -11 -6 3 32 38 32 27 28 11 26 49 48 15
-2 -19 41 -42 5 30 46 69 90 20 41 36 32 15 90 69 58 96 66 -15 10 80 97 132 72 51 36 22 -36 -45 -16 -12 -11 -17 19 40 35 22 23 21 30 43 39 62
26 11 5 -4 23 94 73 85 47 60 57 27 53 38 3 53 92 138 108 55 9 70 131 53 94 90 70 78 12 8 -20 0 -28 32 1 -3 2 8 12 7 23 34 9 35
70 98 21 43 7 62 -2 55 83 109 92 31 32 45 19 37 34 95 113 93 49 -27 159 121 104 115 111 88 57 54 35 14 30 41 4 5 10 2 10 10 14 33 25 17
106 34 25 4 20 23 67 140 145 112 78 43 43 74 40 9 -29 -39 -1 78 151 69 88 191 115 61 112 103 48 44 87 91 78 65 32 41 -9 -12 1 16 7 27 35 20
-13 -46 -46 -13 -12 60 102 155 114 89 84 32 43 78 36 -25 -55 -53 -38 -23 107 195 224 131 137 150 172 218 127 95 123 131 107 57 59 65 -3 -5 -7 -11 -12 -7 1 16
37 33 3 -6 44 29 46 97 89 60 45 31 60 19 0 -28 -35 -30 -31 -28 101 166 154 178 170 170 194 186 183 140 47 124 111 41 67 62 71 11 9 -2 17 -8 -12 -14
42 13 -3 -5 -12 59 27 55 74 107 116 60 59 57 14 -17 -23 -12 1 21 35 112 191 229 209 207 240 112 136 165 126 83 119 43 85 66 76 79 19 23 30 4 -1 2
3 20 37 -1 32 60 31 26 80 116 61 62 80 63 20 34 5 -3 10 44 29 51 93 170 277 226 204 81 97 122 152 118 116 101 86 69 77 53 72 64 33 29 36 32
76 36 55 65 101 26 83 66 94 78 102 65 55 27 40 26 0 -21 -17 -16 40 8 72 193 229 284 224 193 153 145 117 115 108 114 92 69 53 72 82 80 79 48 54 27
77 27 43 17 86 72 64 84 88 103 85 93 75 29 45 18 8 -16 -41 -11 36 45 81 121 206 245 223 210 176 79 72 121 114 96 89 99 68 70 82 86 82 75 53 65
22 73 88 82 112 97 86 38 73 83 98 71 79 31 86 77 43 21 -18 7 47 15 65 172 217 183 239 188 192 202 190 198 188 157 76 75 77 75 68 61 74 80 64 61
67 67 67 60 53 80 76 36 47 79 87 67 91 71 81 125 89 37 8 30 58 57 20 110 213 217 184 183 180 175 224 248 266 203 130 87 86 81 70 59 68 71 65 54
59 53 35 33 28 35 47 63 53 74 67 74 58 87 49 104 85 52 36 30 44 67 31 81 125 213 180 191 170 143 133 186 281 245 146 160 135 134 109 75 71 81 87 77
94 84 90 90 57 70 45 43 54 66 71 53 43 48 69 83 57 95 57 32 30 45 52 12 42 121 103 115 131 172 165 132 121 119 141 176 85 138 125 68 52 98 126 119
117 147 163 118 88 47 62 20 42 63 71 77 68 56 55 105 89 93 58 5 8 37 64 39 36 56 55 102 119 117 125 124 139 161 146 131 210 131 78 83 58 151 171 185
155 222 177 142 126 82 28 52 61 69 67 61 44 41 55 71 76 70 49 -15 22 66 71 78 53 34 35 87 115 150 157 134 114 121 97 92 143 114 48 69 69 76 128 156
74 89 124 124 110 80 84 69 58 56 54 62 32 56 76 129 159 129 72 51 -3 62 96 68 56 10 -55 -83 -38 43 69 117 100 162 181 168 115 117 72 85 86 115 139 148
109 121 116 135 144 105 87 97 67 102 68 49 106 85 63 56 93 102 96 106 79 35 11 34 36 -49 -35 -37 -118 -110 -61 -83 -93 2 41 96 68 76 70 82 149 156 159 172
118 104 96 121 131 81 74 104 89 71 6 21 52 58 68 32 18 22 63 102 96 123 51 6 2 62 73 46 72 31 -67 -161 -147 -93 75 33 48 50 63 86 102 113 128 141
84 101 87 105 81 52 119 55 55 -10 -18 46 46 26 61 45 42 82 36 82 89 64 47 56 73 65 77 91 120 128 90 31 46 20 53 83 89 81 93 120 118 115 117 111
96 78 81 53 28 20 35 9 -3 -25 -41 -14 -23 -10 2 28 87 81 103 42 30 34 20 16 25 30 67 88 97 129 75 67 82 103 110 105 136 119 97 84 78 80 75 67
85 75 83 53 -16 3 -43 -16 35 1 -17 -18 8 -14 6 20 -9 -7 -87 -71 15 27 37 31 31 43 46 42 56 53 64 80 111 112 115 105 102 98 114 125 113 81 70 63
72 111 95 41 -4 -18 -13 -6 8 3 8 -7 -1 -9 -52 -13 -18 12 -18 23 36 33 38 28 32 35 42 36 51 49 60 84 109 102 93 101 99 107 116 134 108 78 75 62
86 108 118 74 36 52 -1 -16 6 29 26 18 14 -15 -45 -6 25 37 19 24 40 49 41 51 42 42 28 26 38 41 48 62 84 98 95 82 70 66 68 73 114 154 99 107

GFSCGP_con_3kmhel_165.txt.gz
Helicity
114 6 -8 -2 25 26 25 48 54 7 20 70 120 55 67 85 55 67 16 -4 6 20 17 8 30 18 12 -9 4 7 6 2 -12 -0 11 32 23 13 13 16 14 26 22 -19
61 -9 11 22 31 21 72 103 65 10 -19 -14 23 125 146 118 116 95 78 28 9 6 3 2 13 23 20 19 8 15 4 -8 -9 -4 11 25 32 12 19 4 14 16 28 1
33 37 21 62 56 56 107 123 68 23 -0 -6 45 49 17 6 90 35 64 25 -22 24 21 25 7 16 1 9 22 18 8 9 10 5 7 7 17 13 15 6 6 23 34 13
43 31 70 70 69 68 167 29 14 42 7 32 2 61 45 23 78 126 113 102 49 -2 10 25 22 1 14 -18 -9 -1 6 -1 2 4 11 13 9 8 28 33 46 30 32 18
36 34 68 49 29 49 74 -1 20 45 37 19 20 27 28 18 1 70 136 169 127 84 51 21 23 32 26 -29 -19 -17 -3 4 4 12 11 15 14 20 27 24 17 28 33 24
49 21 34 20 27 25 45 66 67 60 38 10 49 36 47 16 -3 -40 -38 97 146 78 43 11 -14 -21 9 -11 -15 -9 -12 14 12 3 3 8 24 27 22 10 13 21 33 36
30 22 38 43 49 57 43 34 37 22 20 25 39 24 16 13 -0 -28 -41 -32 100 103 29 -1 12 5 1 -1 -5 -16 -0 -1 9 16 4 -1 9 15 19 15 13 23 23 24
-1 12 41 49 41 32 44 28 34 11 16 27 53 25 34 42 15 -11 -22 -29 -3 30 117 60 -3 16 -17 5 -1 3 -12 4 19 4 5 -4 7 15 20 23 7 18 10 27
-11 34 42 24 68 83 82 97 77 88 60 38 62 48 7 21 10 25 3 -17 -44 -51 29 84 12 -0 29 38 6 23 25 -25 30 27 35 14 18 21 16 10 15 20 13 35
2 28 35 17 10 62 61 107 59 72 40 29 54 60 41 30 28 36 19 5 -2 -18 -2 12 20 -18 7 2 15 17 8 21 39 29 17 5 10 24 23 23 11 20 25 30
27 20 39 5 53 61 85 93 121 92 86 38 39 52 53 37 60 31 20 28 15 -1 -2 2 23 11 -27 -9 38 33 13 15 -5 33 43 15 21 26 30 26 12 22 27 29
48 41 72 68 63 84 82 95 103 79 75 102 92 64 92 70 52 48 40 41 43 14 -0 5 18 13 2 -58 38 53 37 64 41 53 71 55 25 33 28 25 30 33 27 24
72 73 55 55 52 72 88 105 101 109 107 97 84 61 72 75 52 50 55 55 59 41 36 25 21 39 54 21 23 96 88 77 48 67 127 75 58 43 21 25 27 30 41 59
113 107 62 26 59 74 77 71 72 78 107 141 115 93 75 57 54 50 50 53 47 42 55 46 46 37 68 68 79 60 99 109 63 70 104 74 69 50 32 25 36 38 48 57
61 69 47 44 55 55 56 59 68 77 89 98 93 95 62 68 48 51 54 51 46 43 60 57 45 26 48 54 62 94 135 87 102 95 96 105 85 74 66 50 49 47 60 57
87 81 79 73 85 88 69 47 49 47 66 58 32 10 53 30 54 51 62 62 49 41 40 54 59 41 23 36 58 101 146 90 88 99 101 104 109 112 104 95 85 69 62 63
107 100 83 57 128 132 95 45 65 82 80 99 74 27 47 20 33 63 63 42 41 52 46 49 70 55 33 31 63 82 133 99 86 101 119 132 125 132 102 107 107 90 84 103
118 123 118 101 138 117 62 80 86 92 65 87 75 88 40 38 55 47 31 22 32 42 61 56 63 51 54 80 52 74 146 130 108 92 98 110 100 123 125 129 111 112 118 141
106 124 108 71 60 60 26 84 118 114 37 71 49 20 38 43 42 21 24 38 49 86 93 110 116 127 99 49 57 56 32 88 122 119 131 105 109 105 124 116 99 140 130 172
138 130 79 98 77 58 45 110 135 112 31 92 49 30 64 69 33 51 47 89 93 110 138 109 98 104 87 79 95 90 126 112 56 69 104 111 110 132 114 131 147 162 183 154
113 120 94 109 102 76 77 116 102 56 60 37 6 20 66 64 65 39 108 118 99 100 116 87 33 16 -24 24 46 70 73 119 172 154 106 101 88 88 118 134 156 161 180 195
99 124 122 117 86 53 86 118 83 76 45 16 20 48 73 90 68 70 123 130 145 109 74 11 -21 24 33 23 -23 -58 -46 -80 26 92 103 134 125 135 149 160 156 183 209 192
100 116 102 73 66 88 50 41 36 43 22 20 66 62 49 73 70 82 92 139 103 104 132 -72 7 65 68 -2 46 42 10 13 25 21 43 31 70 47 40 77 87 71 64 49
82 83 65 76 59 33 36 17 16 11 9 15 9 33 47 45 34 55 74 107 100 -0 14 1 30 60 86 115 110 89 41 25 40 50 55 48 60 75 59 59 51 42 31 18
119 96 69 48 40 37 28 16 14 20 20 13 -3 2 24 28 34 66 59 82 -38 -51 3 5 29 57 81 59 63 62 33 30 52 45 35 34 46 62 73 83 62 35 33 38
83 65 45 26 49 59 36 11 32 22 18 19 10 -2 -8 -5 26 16 4 -51 -23 -28 -10 8 24 41 46 56 61 52 41 41 49 47 42 38 39 32 34 37 54 100 78 61

GFSCGP_con_3kmhel_168.txt.gz
Helicity
35 -17 -28 35 28 45 56 41 38 16 -0 5 31 -4 55 31 41 32 -7 10 25 30 32 15 20 19 15 13 20 23 22 17 33 23 48 32 39 14 17 11 5 6 7 2
2 -18 56 96 49 47 69 37 25 8 -1 -0 23 8 42 74 60 49 16 -3 31 11 43 21 14 30 22 33 19 11 16 8 10 21 44 72 40 15 15 18 7 1 4 -9
5 54 65 59 54 53 30 34 30 24 -4 -17 41 2 -14 31 81 38 28 21 38 19 26 29 24 24 32 30 27 15 4 -8 -4 15 19 27 30 24 10 6 -5 3 11 10
11 9 49 73 62 60 9 30 23 4 -35 29 4 17 25 16 14 77 48 46 45 74 1 3 21 27 29 37 15 8 12 12 7 10 17 28 44 39 20 11 15 15 15 19
3 15 27 32 52 25 37 30 12 -9 -8 4 12 13 63 7 -6 25 53 59 47 21 18 -6 -10 24 22 23 25 -4 -4 2 9 4 22 14 22 10 23 22 43 28 25 20
47 46 54 40 57 35 22 23 -1 -3 10 -4 91 30 26 34 26 11 -7 33 52 8 -23 -10 -13 -34 17 37 26 38 17 -3 1 4 4 8 13 19 32 23 26 14 -8 4
20 27 9 34 27 33 3 -11 -9 -12 14 -4 50 39 50 30 4 -1 -1 -4 14 55 3 -42 -36 -32 -22 20 53 48 41 14 11 -1 -0 1 9 21 20 20 8 -1 24 14
-0 50 7 27 31 -1 -1 37 24 12 9 17 94 44 33 44 35 26 5 -9 10 -0 25 15 7 3 -24 4 37 39 59 41 32 31 2 -3 10 14 25 9 63 1 26 9
6 34 63 36 32 18 38 -2 24 18 -16 5 12 50 20 39 9 34 24 12 -2 -14 -26 5 12 12 1 10 34 50 42 31 32 30 34 11 7 12 23 31 19 20 38 27
12 31 4 35 14 28 63 62 11 22 15 15 18 34 21 34 18 25 18 7 16 11 -3 -11 8 3 11 8 22 25 28 43 32 15 35 34 28 21 27 24 28 39 50 54
-10 -0 77 40 27 44 38 23 28 30 44 28 19 22 73 30 54 54 40 30 25 14 9 9 15 15 4 -30 19 42 30 30 42 43 34 27 23 22 31 29 33 31 27 33
2 14 26 61 42 64 58 72 62 25 9 28 44 29 76 94 75 71 56 43 36 28 23 17 24 31 28 -1 -11 54 100 44 36 50 35 22 26 21 21 31 34 37 29 28
32 12 25 77 86 63 61 66 62 52 36 27 35 27 66 75 54 60 55 49 38 23 14 19 24 32 38 12 80 16 34 50 56 61 53 46 36 31 17 18 24 29 37 37
49 -10 14 29 67 51 56 42 57 46 34 28 34 35 49 42 82 66 50 52 39 34 30 38 30 36 39 57 85 70 38 70 101 145 76 91 69 53 34 30 27 26 31 36
16 4 32 23 46 38 34 31 49 50 56 82 54 58 49 38 79 81 78 62 57 49 48 49 44 42 47 48 66 74 92 91 87 125 115 75 87 72 66 52 40 32 32 33
46 10 34 19 44 36 38 24 36 33 31 33 26 23 26 81 81 41 41 57 62 72 51 45 53 76 75 60 62 81 72 116 132 175 98 79 95 108 100 72 63 44 44 36
19 23 36 1 87 47 34 25 17 20 11 21 21 30 66 29 42 44 47 72 88 73 58 40 49 57 64 66 87 63 80 97 142 172 176 105 97 103 129 106 107 80 68 46
8 18 20 14 60 32 14 83 58 27 24 27 51 22 26 27 51 60 59 60 54 53 66 44 53 47 57 64 79 69 97 148 158 150 163 121 123 116 142 157 121 98 107 102
43 24 37 35 20 17 33 26 30 22 21 63 68 46 45 49 16 15 50 53 77 101 79 86 86 83 97 77 58 69 101 141 165 151 174 121 131 129 136 118 137 152 118 136
81 63 36 41 30 22 31 96 75 62 15 113 68 53 30 43 19 141 79 98 120 119 107 119 116 72 86 105 123 119 117 75 81 86 100 89 94 114 137 111 159 171 168 167
103 77 49 36 38 23 107 95 69 22 79 100 72 28 16 33 120 152 97 130 137 149 126 135 141 99 89 32 130 131 146 187 167 135 122 116 113 104 124 183 186 203 205 233
103 72 63 41 43 -5 116 91 34 99 62 55 30 38 58 145 127 136 129 130 115 122 138 128 113 79 27 -29 12 71 53 19 68 106 211 158 156 154 211 239 194 219 222 202
77 53 44 74 55 86 59 97 85 60 49 28 37 59 108 141 104 98 108 112 106 102 138 161 167 89 52 22 29 14 -11 -11 -0 -11 15 106 167 136 106 107 121 60 75 58
134 105 69 75 76 74 64 70 66 50 27 38 55 52 51 57 45 70 95 128 127 110 119 165 -4 16 27 47 33 40 10 16 26 32 42 62 35 35 26 38 55 50 23 33
107 72 58 45 80 95 75 60 51 44 35 37 48 41 51 34 28 52 99 89 102 111 258 71 36 24 38 -37 29 37 4 16 14 17 19 27 14 24 61 77 73 33 53 44
100 56 35 17 87 31 91 65 62 40 30 29 31 25 35 33 29 27 -164 -24 -52 -57 -36 -10 -9 -6 15 67 61 28 -14 9 21 16 7 16 18 24 18 22 62 119 92 96

GFSCGP_con_3kmhel_171.txt.gz
Helicity
-13 -42 -14 116 115 68 175 -4 26 29 11 -5 4 116 91 79 40 -6 -19 95 49 72 30 57 37 27 39 19 -7 -20 -14 -40 -3 41 39 21 4 18 6 19 22 11 8 8
17 -8 49 14 29 -20 14 -12 17 14 -5 -32 22 19 96 94 70 81 10 -22 86 46 40 59 46 38 33 32 -2 -10 6 -28 8 22 20 46 36 31 21 18 11 3 7 14
6 -4 69 38 2 19 -10 8 13 38 3 -36 -24 34 33 101 65 57 56 43 -33 -2 61 73 30 51 41 36 9 -2 -0 1 8 28 32 29 41 34 29 34 4 3 11 15
6 42 16 7 2 15 3 34 -0 14 -1 54 -22 -17 11 37 45 47 61 26 59 63 -18 -2 77 22 47 57 35 29 16 17 -15 5 34 49 51 24 19 25 40 29 11 16
-0 -5 2 7 17 3 22 12 6 4 1 17 40 -24 -44 32 60 34 33 67 48 171 17 9 -27 101 43 52 63 38 35 19 1 5 33 20 37 26 10 31 54 33 28 12
60 36 24 13 -4 29 36 -5 -18 -16 -10 -10 58 17 124 39 19 40 39 40 66 32 112 5 -9 75 60 72 41 58 51 28 18 10 5 19 30 29 47 37 43 16 14 15
16 5 6 37 9 13 1 23 -23 -4 5 38 48 26 43 35 37 33 34 19 61 49 -8 70 -16 -30 87 21 76 55 79 37 29 22 -5 1 7 16 34 46 4 2 -2 19
28 67 8 36 49 -8 -10 50 23 11 12 29 11 8 48 89 59 44 37 26 3 25 37 8 28 26 -1 44 72 85 109 50 36 34 28 35 -11 6 9 7 41 11 21 14
29 29 35 23 -0 24 8 -1 50 45 18 12 16 48 39 52 39 22 24 28 35 13 8 26 -6 10 54 23 55 99 141 66 40 34 35 35 27 -7 4 46 39 42 4 6
20 38 29 47 1 12 47 60 2 4 -22 12 25 34 54 55 27 29 33 9 35 34 13 -0 30 12 28 63 35 69 131 101 47 35 39 29 30 26 28 48 27 42 47 59
23 -23 68 40 28 7 28 1 10 44 46 43 26 69 89 64 33 41 33 38 52 39 41 27 13 34 12 70 28 58 86 84 42 39 51 27 25 27 34 33 29 37 44 37
-15 -5 27 27 68 62 49 50 43 23 23 9 21 59 70 83 70 100 59 73 57 65 58 43 31 41 37 48 83 71 133 68 81 54 60 54 32 16 30 27 29 46 43 42
17 2 -7 19 70 42 -8 11 14 8 19 39 40 49 64 65 70 86 100 68 61 46 39 48 37 38 47 44 130 173 64 37 105 78 61 57 48 42 11 33 27 40 56 46
54 9 21 26 31 36 1 -20 33 18 23 29 17 61 87 -2 38 43 49 68 75 74 58 53 52 48 47 48 98 143 80 96 131 135 86 111 92 67 30 28 33 30 49 36
15 10 16 26 36 57 27 30 33 31 28 60 49 71 68 55 67 122 111 107 55 44 61 66 54 62 55 57 70 114 113 181 125 158 153 167 141 104 80 76 59 34 37 36
-1 5 31 29 20 38 21 13 18 16 24 24 18 24 23 73 82 85 80 78 65 62 64 54 80 96 94 78 69 84 70 103 171 144 158 157 197 149 104 93 111 57 54 51
-2 3 3 12 18 35 21 26 12 23 20 25 25 22 38 70 47 38 48 41 53 78 68 88 92 54 49 54 84 76 78 96 119 179 209 179 198 180 133 109 113 79 79 52
47 16 1 3 76 44 6 57 59 57 41 36 33 32 51 36 47 37 77 52 58 55 133 108 100 90 66 57 53 77 72 80 92 114 179 206 197 210 113 79 87 109 105 78
24 42 24 21 21 19 14 46 34 29 35 34 35 38 56 41 97 30 60 70 79 161 69 61 84 91 51 46 53 61 90 76 89 121 178 209 175 200 169 110 125 112 115 148
11 47 40 30 20 22 26 94 57 64 -25 87 67 97 72 39 28 142 226 115 96 112 142 149 96 56 92 100 78 113 94 100 134 152 176 226 235 253 168 126 149 189 242 245
43 34 36 19 26 10 87 106 92 26 84 105 102 90 59 40 106 168 175 116 145 186 161 155 137 95 81 83 119 156 153 178 182 134 129 130 106 132 158 158 190 224 221 203
79 42 19 10 16 23 136 102 96 111 62 72 48 48 56 133 187 138 107 110 146 165 180 169 163 143 75 55 74 122 123 90 118 138 167 131 100 184 192 198 220 217 223 223
67 48 18 41 95 101 42 99 93 68 58 73 57 44 24 178 128 91 88 88 109 145 174 183 136 133 68 32 34 -9 27 -4 -10 53 65 176 250 146 180 241 225 183 155 183
30 114 59 42 33 64 48 118 68 68 58 51 37 36 59 61 58 22 52 47 82 109 111 139 132 134 92 44 49 14 -7 12 -8 -32 50 6 132 165 213 138 77 129 105 54
82 108 60 54 95 91 80 88 69 68 38 36 39 41 49 40 17 115 205 167 112 127 117 84 29 86 100 13 -18 -32 -15 14 8 24 28 -14 2 43 49 47 41 8 -10 -47
125 91 28 32 110 38 73 70 112 49 25 37 27 35 22 42 39 35 -36 74 44 30 97 103 114 -81 -64 -35 -15 5 19 19 8 -4 -17 -13 -1 10 -3 14 71 130 73 75